Location: Bouillancy
(49.1149°N, 2.9308°E)
Time: 07:28:38
(UTC+00:00)

Cosmos 2098 Rocket - Pass Details

Date: 30 September 2020
Orbit: 366 x 1185 km, 82.9° (Epoch: 29 October)

Event Time Altitude Azimuth Distance (km) Brightness Sun altitude
Rises 19:08:20 0° 353° (N) 3,781 7.4 -17.1°
Reaches altitude 10° 19:11:15 10° 359° (N) 2,708 6.5 -17.5°
Maximum altitude 19:17:10 47° 72° (ENE) 1,084 3.9 -18.4°
Enters shadow 19:18:53 34° 119° (ESE) 1,248 4.0 -18.7°
